Quick links : Home Page : Contact Us : Index : Site Map : Search Site : Ephemerides


(71958) 2000 WR110

Orbital Elements

The following orbital elements are taken from MPO 51845
 (71958) 2000 WR110
Epoch 2007 Oct. 27.0 TT = JDT 2454400.5                 MPC
M  47.90575              (2000.0)            P               Q
n   0.28709933     Peri.   79.96927     +0.97686055     -0.20408193
a   2.2756978      Node   291.78400     +0.15910194     +0.89333107
e   0.1542007      Incl.    3.95111     +0.14293371     +0.40038751
P   3.43           H   16.1           G   0.15           U   1
From 81 observations at 4 oppositions, 1993-2003, mean residual 0".65.
An explanation of the orbital elements is available.

These orbital elements are also available in forms suitable for loading into a number of popular planetarium-type software programs.


Ephemeris

The following ephemeris is at intervals of five days. A daily ephemeris covering the same time interval is also available.

Personalized ephemerides for this (and other) objects may be generated using the Minor Planet & Comet Ephemeris Service.

Date    TT    R. A. (2000) Decl.     Delta      r     Elong.  Phase     V
2008 04 14    06 47.51   +22 04.0    2.388    2.368    76.7    24.3    21.0
 
2009 02 08    14 05.35   -17 39.4    2.208    2.626   103.9    21.4    21.0
2009 02 13    14 07.44   -18 00.1    2.142    2.626   108.4    20.9    20.9
2009 02 18    14 08.93   -18 18.0    2.077    2.625   113.0    20.3    20.8
2009 02 23    14 09.79   -18 32.8    2.014    2.625   117.7    19.5    20.7
2009 02 28    14 09.98   -18 44.2    1.954    2.624   122.6    18.5    20.6
2009 03 05    14 09.47   -18 52.0    1.897    2.623   127.6    17.4    20.5
2009 03 10    14 08.26   -18 56.1    1.843    2.621   132.8    16.1    20.4
2009 03 15    14 06.35   -18 56.1    1.794    2.620   138.2    14.7    20.3
2009 03 20    14 03.75   -18 51.9    1.749    2.618   143.7    13.0    20.2
2009 03 25    14 00.49   -18 43.4    1.709    2.617   149.3    11.2    20.0
2009 03 30    13 56.66   -18 30.4    1.676    2.615   155.0     9.3    19.9
2009 04 04    13 52.33   -18 13.2    1.648    2.613   160.7     7.3    19.8
2009 04 09    13 47.63   -17 52.1    1.627    2.611   166.3     5.2    19.7
2009 04 14    13 42.68   -17 27.4    1.612    2.608   171.2     3.4    19.5
2009 04 19    13 37.63   -16 59.8    1.605    2.606   173.6     2.5    19.5
2009 04 24    13 32.61   -16 30.1    1.605    2.603   171.0     3.4    19.5
2009 04 29    13 27.79   -15 59.2    1.611    2.600   166.1     5.4    19.6
2009 05 04    13 23.30   -15 28.0    1.625    2.597   160.5     7.4    19.8
2009 05 09    13 19.25   -14 57.5    1.644    2.594   154.8     9.5    19.9
2009 05 14    13 15.73   -14 28.5    1.670    2.590   149.2    11.5    20.0
2009 05 19    13 12.82   -14 01.7    1.702    2.587   143.7    13.4    20.1

Back to Observable Critical-List Minor Planets

MPC

Valid HTML 4.01!